SKYSAT-A

Last updated on Thu Oct 30 2025 00:02:31 GMT+0000 (Coordinated Universal Time)

1 39418U 13066C 25302.38186030 .00004603 00000+0 27679-3 0 9998 2 39418 97.4174 353.9364 0023130 35.3945 324.8815 15.11119644653604
UTC large
Height (km)
Speed (km/s)
/
Latitude / Longitude
Inclination (degrees)
Orbital Period (minutes)
Azimuth
Elevation
Range (km)
Doppler Factor

Next 0 passes for location: London (51.5072 / 0.1276)

Sorry there are no passes over London.